Location: ??????????
(53.2638°N, 59.1135°E)
Time: 20:12:11
(UTC+00:00)

Daily predictions for brighter satellites

Satellite Brightness Start Highest point End
(mag) Time Altitude Azimuth Time Altitude Azimuth Time Altitude Azimuth
Unknown 4.3 15:55:31 10° W 15:59:31 46° SSW 16:03:31 10° SE
Meteor 1-19 Rocket 4.5 15:54:00 10° N 15:59:34 56° ENE 16:05:14 10° SSE
Cosmos 2369 Rocket 4.3 15:55:20 10° NW 15:59:55 26° WSW 16:04:27 10° SSW
Unknown 4.3 15:56:06 10° W 16:00:04 45° SSW 16:04:01 10° SE
Unknown 4.4 15:57:49 10° W 16:01:46 44° SSW 16:05:43 10° SE
Cosmos 2221 Rocket 3.6 15:58:34 10° N 16:02:59 66° ENE 16:07:23 10° SSE
ERS-1 Rocket 4.2 15:59:21 10° ESE 16:03:27 26° ENE 16:07:35 10° N
Cosmos 1354 Rocket 4.4 15:58:35 10° SSW 16:03:55 73° WNW 16:09:17 10° NNE
SPOT 3 Rocket 4.4 16:01:18 10° S 16:06:22 52° W 16:11:27 10° NNW
Unknown 4.4 16:02:45 10° W 16:06:40 42° SSW 16:10:35 10° SE
CZ-2C R/B 2.9 16:03:27 10° SSE 16:08:09 65° ENE 16:12:55 10° N
Unknown 4.5 16:04:26 10° W 16:08:21 41° SSW 16:12:16 10° SE
Okean 1 3.3 16:04:40 10° N 16:08:40 76° ENE 16:12:37 10° SSE
ATLAS 2AS CENTAUR R/B 3.7 16:01:56 10° WSW 16:09:56 65° NW 16:17:52 10° NE
Unknown 4.5 16:06:08 10° W 16:10:01 40° SSW 16:13:55 10° SE
Cosmos 2292 Rocket 4.2 16:05:17 10° NNW 16:11:18 75° W 16:15:42 10° S
SL-16 R/B 4.5 16:11:20 10° NNW 16:14:31 15° NNE 16:17:42 10° NE
Spot 2 Rocket 3.6 16:14:15 10° SSE 16:19:17 65° ENE 16:24:21 10° N
Meteor 2-19 Rocket 4.5 16:15:03 10° N 16:21:16 86° E 16:27:24 10° S
Resurs 1-3 4.0 16:16:56 10° S 16:21:17 65° WSW 16:25:40 10° NNW
Okean 1-7 4.3 16:17:38 10° NNW 16:21:51 44° W 16:26:02 10° SSW
Cosmos 44 Rocket 3.5 16:17:09 10° NW 16:21:59 62° NE 16:26:28 11° ESE
Meteor 1-20 Rocket 4.3 16:17:12 10° S 16:23:01 84° ESE 16:28:48 10° NNE
Cosmos 1697 Rocket 3.9 16:18:38 10° NNW 16:23:42 32° NE 16:28:46 10° ESE
Cosmos 1656 4.3 16:21:00 10° NNW 16:26:30 44° NE 16:31:35 11° ESE
NOSS 3 (A) 4.5 16:24:03 10° SW 16:26:47 63° SE 16:30:06 10° NE
Cosmos 1515 4.0 16:27:51 10° N 16:31:35 49° ENE 16:35:00 12° SSE
Cosmos 2112 Rocket 4.2 16:27:14 10° NNW 16:32:29 59° ENE 16:37:09 13° SE
MetOp-B 4.2 16:28:59 10° SSE 16:34:20 76° ENE 16:39:42 10° NNW
EXPRESS MD2 3.6 16:30:33 10° W 16:35:08 44° SSW 16:37:13 16° SE
COSMOS 2406 4.3 16:31:30 10° SSE 16:35:58 25° ESE 16:40:29 10° NE
SL-24 R/B 4.4 16:33:56 10° S 16:38:45 84° E 16:43:40 10° N
ASTEX 1 3.5 16:38:15 10° NNE 16:43:12 58° E 16:48:04 10° S
Resurs 01 Rocket 2.5 16:39:58 10° S 16:44:16 50° W 16:48:35 10° NNW
Aureole 2 Rocket 1.9 16:41:46 10° NNW 16:44:30 71° WSW 16:46:28 16° SSE
Cosmos 1980 Rocket 3.6 16:40:10 10° NNW 16:45:01 29° NE 16:49:52 10° E
CZ-2C R/B 3.1 16:41:23 10° NNE 16:46:19 40° E 16:51:18 10° SSE
TSX-5 3.4 16:43:33 10° NNW 16:46:49 79° NE 16:49:31 17° SE
MTI 3.9 16:45:14 10° NNE 16:48:22 52° E 16:51:28 10° S
Cosmos 1536 4.0 16:46:15 16° SE 16:48:32 26° E 16:51:58 10° NNE
Aureole 2 4.0 16:46:05 10° SSW 16:49:05 61° ESE 16:52:01 10° NNE
H-2A R/B 3.5 16:47:23 10° SSW 16:51:59 34° W 16:56:31 10° NNW
Cosmos 2369 4.3 16:47:04 10° NNW 16:52:34 48° NE 16:56:55 16° ESE
Cosmos 1386 Rocket 4.4 16:47:45 10° N 16:53:52 77° ENE 16:59:47 11° SSE
Cosmos 1666 4.5 16:54:52 15° ESE 16:55:46 16° E 16:58:10 10° NE
Cosmos 1809 Rocket 4.5 16:49:42 10° N 16:55:54 76° ENE 17:01:37 12° SSE
Cosmos 1777 Rocket 4.1 16:52:06 10° SSW 16:57:23 81° WNW 17:02:43 10° NNE
Okean 3 4.0 16:54:38 10° NNW 16:58:46 57° W 17:02:51 10° S
Cosmos 923 Rocket 4.3 16:53:47 10° NNW 16:59:07 67° WSW 17:03:56 12° SSE
Meteor 2-4 Rocket 3.7 16:53:59 10° NNW 16:59:25 82° W 17:04:37 11° S
Cosmos 1602 4.2 16:56:29 10° SSW 17:00:17 62° WNW 17:04:06 10° N
Landsat 7 3.9 16:57:28 16° SSE 17:01:09 65° ENE 17:05:54 10° N
NOSS 5 (C) 4.4 17:00:05 10° NW 17:03:14 87° SW 17:05:29 23° SE
SJ 16-02 2.7 17:02:52 18° ESE 17:03:51 20° E 17:07:04 10° NE
Lacrosse 4 Rocket 4.4 17:02:38 10° NNW 17:04:00 11° N 17:05:23 10° NNE
Cosmos 1553 Rocket 4.0 16:58:30 10° S 17:04:46 90° E 17:11:11 10° N
Meteor 2-14 Rocket 4.5 16:59:03 10° N 17:05:10 71° ENE 17:10:10 16° SSE
Meteor 2-21 4.4 17:00:56 10° N 17:07:09 81° E 17:12:29 14° SSE
RESURS DK-1 4.0 17:03:38 10° WSW 17:07:32 38° NW 17:11:28 10° NNE
Cosmos 1898 Rocket 4.2 17:06:30 16° SSE 17:09:59 34° ESE 17:14:41 10° NE
USA 229 DEB 4.2 17:04:16 10° NW 17:11:18 60° NNE 17:17:31 15° ESE
USA 229 4.2 17:04:22 10° NW 17:11:24 60° NNE 17:17:38 15° ESE
Cosmos 1680 Rocket 3.8 17:06:52 10° NNW 17:12:06 67° WSW 17:16:14 16° S
Meteor 1-11 Rocket 3.9 17:08:39 10° S 17:14:27 62° E 17:20:21 10° NNE
USA 245 4.1 17:11:11 15° S 17:14:58 73° WSW 17:20:32 10° NNW
Aureole 3 Rocket 2.4 17:17:37 16° S 17:20:33 70° E 17:23:44 10° NNE
Cosmos 1709 Rocket 3.9 17:14:37 10° N 17:20:46 76° ENE 17:25:16 19° SSE
IGS 5A 3.4 17:19:40 22° SSE 17:22:16 87° ENE 17:26:27 10° NNW
Cosmos 2098 Rocket 3.0 17:19:47 10° N 17:23:44 86° E 17:26:59 21° S
Meteor 2-21 Rocket 4.4 17:17:38 10° N 17:23:50 85° ENE 17:28:30 19° SSE
Cosmos 1378 Rocket 3.7 17:20:40 10° NNW 17:25:03 72° W 17:28:11 19° S
Cosmos 1782 Rocket 4.3 17:23:40 26° SE 17:25:24 36° E 17:29:29 10° NNE
Iridium 2 3.6 17:24:03 24° S 17:26:13 72° E 17:29:58 10° N
DMSP B5D2-2 4.5 17:21:27 10° N 17:26:40 66° WNW 17:31:52 10° SSW
S3M 4.1 17:21:30 10° SSW 17:27:49 80° WNW 17:34:06 10° N
Cosmos 1674 Rocket 4.3 17:24:32 10° NNW 17:28:46 48° W 17:32:24 13° SSW
Cosmos 1733 Rocket 3.6 17:24:44 10° SSW 17:28:59 58° WNW 17:33:17 10° N
Cosmos 2315 Rocket 4.2 17:24:16 18° SSE 17:29:00 57° E 17:35:12 10° NNE
ADEOS Rocket 3.8 17:23:39 10° N 17:29:12 52° WNW 17:35:14 10° SW
Cosmos 2322 Rocket 4.0 17:26:57 10° NNW 17:31:26 23° NNE 17:35:53 10° E
Terra 1.9 17:28:50 26° SE 17:31:27 65° ENE 17:36:12 10° N
Cosmos 1500 3.1 17:29:31 20° S 17:32:05 83° E 17:35:58 10° NNE
USA 267 3.6 17:27:32 10° ENE 17:34:01 66° N 17:40:30 10° W
SPOT 5 2.6 17:34:22 26° SSE 17:36:48 83° WSW 17:41:10 10° NNW
ERS-1 Rocket 3.3 17:38:25 20° S 17:41:55 62° WSW 17:46:55 10° NNW
GP-B 3.7 17:37:34 10° N 17:41:56 55° W 17:45:44 13° SSW
SPOT 1/Viking Rocket 4.0 17:42:30 19° S 17:46:12 58° WSW 17:51:24 10° NNW
Cosmos 1975 Rocket 3.0 17:42:59 10° N 17:47:25 82° ENE 17:49:21 34° SSE
EO 1 Del DPAF 3.3 17:46:10 10° NNE 17:49:59 77° WNW 17:52:16 23° SSW
Cosmos 2278 3.7 17:44:53 10° NNW 17:50:35 83° ENE 17:53:28 31° SE
Cosmos 1378 4.4 17:50:34 10° N 17:53:48 27° ENE 17:54:26 26° E
Cosmos 2082 Rocket 3.0 17:52:57 28° SE 17:54:00 30° ESE 17:58:53 10° NE
Cosmos 1975 4.0 17:53:52 26° E 17:54:00 26° E 17:57:21 10° NNE
Cosmos 1340 2.8 17:58:03 47° SE 17:58:32 51° E 18:02:12 10° NNE
SL-16 R/B 3.5 17:55:22 10° NNW 18:00:29 33° NE 18:04:11 17° E
Cosmos 1833 Rocket 3.0 17:58:30 31° SSE 18:00:36 45° ESE 18:05:57 10° NE
Cosmos 1066 Rocket 4.1 17:55:16 10° NNW 18:00:45 79° W 18:03:31 30° S
Cosmos 1937 Rocket 3.5 17:59:07 27° S 18:02:01 63° ESE 18:07:18 10° NNE
ATLAS 2AS CENTAUR R/B 4.3 17:54:47 10° WNW 18:02:20 40° N 18:09:36 10° ENE
Cosmos 1743 3.3 18:03:03 39° E 18:03:12 39° E 18:06:47 10° NNE
USA 32 4.0 17:58:07 10° N 18:03:24 82° W 18:06:04 30° S
NOSS 3-1 (C) 4.0 17:59:41 10° NW 18:06:55 84° NE 18:11:58 26° SE
ARGOS Delta rocket 4.4 18:06:03 34° SE 18:08:09 55° ENE 18:13:28 10° N
Cosmos 1697 Rocket 2.8 18:02:30 10° NW 18:08:10 70° WSW 18:10:43 33° S
Cosmos 990 Rocket 3.9 18:05:29 19° SSW 18:09:15 84° ESE 18:14:30 10° NNE
Cosmos 1656 4.4 18:04:49 10° NW 18:10:12 45° WSW 18:13:01 25° SSW
Meteor 2-8 Rocket 4.4 18:06:59 28° S 18:10:18 74° E 18:16:22 10° NNE
Cosmos 1241 Rocket 4.4 18:05:17 10° SSW 18:11:49 76° SE 18:18:17 10° NE
CARTOSAT-1 4.5 18:11:11 25° SSW 18:13:14 41° W 18:17:21 10° NNW
Cosmos 405 3.8 18:10:46 10° N 18:14:08 38° ENE 18:14:21 38° E
Cosmos 1842 3.8 18:12:20 10° N 18:16:06 43° ENE 18:16:36 40° E
TELKOM 3 4.5 18:13:02 10° WSW 18:18:19 56° S 18:18:49 53° SSE
Cosmos 1300 Rocket 4.1 18:18:44 38° ESE 18:19:09 39° E 18:23:14 10° NNE
COSMOS 2406 3.4 18:14:04 10° SW 18:19:45 74° NW 18:25:31 10° NNE
Cosmos 468 4.5 18:16:05 10° NNW 18:21:21 78° ENE 18:23:12 41° SE
Okean 2 Rocket 3.1 18:21:29 51° SE 18:22:19 62° E 18:26:42 10° NNE
Cosmos 2360 Rocket 3.9 18:19:04 10° NNW 18:23:47 26° NE 18:28:10 11° E
Cosmos 1536 4.2 18:21:57 16° SW 18:24:50 37° WNW 18:28:40 10° N
Cosmos 372 Rocket 4.4 18:25:38 39° SE 18:26:20 41° ESE 18:31:13 10° NE
CZ-2C R/B 3.9 18:21:48 10° N 18:26:38 39° WNW 18:31:31 10° SW
Sich 1 Rocket 3.7 18:25:21 35° SSW 18:27:13 73° WNW 18:31:44 10° N
Cosmos 1980 Rocket 2.1 18:24:00 10° NNW 18:29:39 81° WSW 18:31:40 42° SSE
Cosmos 1666 3.2 18:29:45 37° SW 18:30:58 56° WNW 18:34:46 10° N
Cosmos 1346 Rocket 3.0 18:31:08 43° SW 18:32:10 64° WNW 18:36:01 10° N
Thor Agena Rocket 4.1 18:28:26 10° N 18:33:28 56° WNW 18:37:22 17° SW
Okean 2 3.7 18:30:41 10° NNW 18:34:46 60° W 18:35:36 48° SW
Cosmos 1707 4.2 18:32:39 10° N 18:35:55 25° ENE 18:36:13 25° ENE
Cosmos 1536 Rocket 3.5 18:32:15 10° N 18:36:44 82° E 18:37:33 59° SSE
SJ 16-02 1.7 18:39:49 28° SW 18:42:01 62° WNW 18:46:27 10° NNE
Cosmos 1867 3.7 18:36:33 10° NW 18:42:03 70° NE 18:44:14 37° ESE
Lacrosse 4 Rocket 4.0 18:41:33 10° NNW 18:44:25 17° NNE 18:47:13 10° ENE
Helios 1A 2.8 18:44:03 66° SSE 18:44:35 84° ENE 18:48:49 10° NNW
Helios 1B rocket 3.9 18:42:44 10° NE 18:45:40 24° E 18:45:40 24° E
ALOS 2 3.1 18:45:52 41° E 18:46:39 46° ENE 18:50:52 10° N
Cosmos 1048 Rocket 3.9 18:44:10 10° NNW 18:49:19 76° WSW 18:50:34 51° S
MOS 1 Rocket 4.2 18:44:19 10° N 18:49:26 53° WNW 18:52:54 21° SW
Cosmos 1898 Rocket 4.4 18:46:51 10° SW 18:51:57 47° NW 18:57:02 10° NNE
Cosmos 2154 Rocket 3.9 18:47:44 10° N 18:54:04 89° W 18:56:21 43° S
Mayak -1.4 18:50:04 10° NNE 18:54:16 73° ESE 18:54:32 70° SE
BREEZE-M DEB (TANK) 4.1 18:51:04 10° W 18:55:56 76° S 19:12:41 10° ESE
Cosmos 1269 Rocket 4.1 18:51:45 10° NNW 18:57:05 71° ENE 18:58:31 48° SE
Cosmos 1025 Rocket 3.0 18:56:15 10° NNW 19:00:39 72° W 19:01:10 63° SSW
USA 229 DEB 4.1 18:55:24 10° NW 19:02:22 54° SW 19:04:56 38° S
USA 229 4.1 18:55:30 10° NW 19:02:28 54° SW 19:05:02 38° S
Cosmos 2333 Rocket 4.3 18:59:54 10° NNW 19:04:21 23° NNE 19:08:46 10° E
Cosmos 2151 Rocket 3.6 19:04:17 61° SSW 19:05:01 81° W 19:09:33 10° N
NOSS 3-1 (A) 4.0 18:58:32 10° NW 19:05:50 75° SW 19:09:29 37° SSE
STPSAT 2 (USA 217) 4.4 19:08:56 70° SSW 19:09:25 84° ESE 19:13:57 10° NNE
Terra 3.7 19:07:43 17° WSW 19:09:39 21° W 19:13:15 10° NW
Nadezhda 1 Rocket 3.9 19:07:44 42° S 19:10:02 88° W 19:16:14 10° N
Meteor 1-12 Rocket 4.3 19:11:29 49° SSE 19:13:08 73° E 19:19:02 10° NNE
Cosmos 1125 Rocket 3.5 19:14:01 56° SE 19:14:40 61° ESE 19:19:52 10° NNE
Cosmos 2322 Rocket 2.2 19:10:47 10° NNW 19:16:28 75° ENE 19:18:08 47° SE
USA 267 3.4 19:10:18 10° E 19:16:50 76° NNE 19:23:23 10° WNW
Meteor 2-17 Rocket 4.5 19:18:30 10° N 19:24:42 73° ENE 19:26:31 47° SSE
Cosmos 1378 4.5 19:25:53 10° NNW 19:29:04 30° W 19:29:04 30° W
Cosmos 1975 3.9 19:29:37 33° W 19:30:21 36° WNW 19:34:06 10° N
Cosmos 2341 Rocket 4.0 19:23:59 10° NNW 19:30:24 81° W 19:32:21 48° S
Cosmos 1674 4.4 19:27:28 10° NNE 19:30:41 24° ENE 19:30:54 24° ENE
Cosmos 2082 Rocket 2.6 19:34:46 27° SW 19:37:46 61° NW 19:43:25 10° NNE
Okean 1 Rocket 2.9 19:38:46 78° WSW 19:38:59 81° W 19:43:23 10° N
Meteor 1-4 Rocket 3.8 19:35:44 10° N 19:39:11 34° ENE 19:39:11 34° ENE
Spot 1 3.9 19:39:27 84° SE 19:39:34 86° ENE 19:43:45 10° NNW
Cosmos 494 Rocket 4.1 19:35:13 10° NNW 19:40:15 56° WSW 19:40:48 53° SW
Cosmos 1544 3.5 19:41:20 61° N 19:41:20 61° N 19:44:25 10° N
Cosmos 2251 Rocket 4.0 19:36:35 10° NNW 19:41:51 55° ENE 19:43:31 39° ESE
SL-27 R/B 3.1 19:43:38 55° NNW 19:43:38 55° NNW 19:46:51 10° NNE
Celestis-02/Orion 38 4.4 19:42:56 61° SSE 19:43:53 88° WSW 19:49:00 10° NNW
CZ-4C R/B 2.7 19:44:24 40° ESE 19:44:24 40° ESE 19:49:54 10° NE
Cosmos 2366 rocket 4.0 19:38:04 10° N 19:44:18 78° ENE 19:46:09 48° SSE
Cosmos 1833 Rocket 3.7 19:40:08 15° WSW 19:44:36 44° NW 19:50:00 10° NNE
SL-16 R/B 2.2 19:39:23 10° NW 19:45:03 67° WSW 19:46:02 56° SSW
Cosmos 405 Rocket 4.5 19:46:01 23° ENE 19:46:01 23° ENE 19:48:32 10° NE
Meteor 1-29 4.0 19:42:48 10° NNE 19:45:08 40° NE 19:45:08 40° NE
ERS-2 2.6 19:47:11 55° NE 19:47:11 55° NE 19:50:28 10° N
APEX 3.8 19:44:02 10° NW 19:49:45 68° WSW 19:50:07 65° SW
Cosmos 1455 Rocket 3.8 19:49:57 40° E 19:49:57 40° E 19:53:56 10° NNE
COSMOS 2455 3.9 19:46:43 10° NW 19:52:27 42° NE 19:58:09 10° ESE
BREEZE M DEB (TANK) 3.6 19:51:28 20° WSW 19:54:32 66° S 20:09:16 10° E
ATLAS 2AS CENTAUR R/B 4.0 19:47:26 10° NW 19:55:05 46° NNE 20:02:17 10° E
Okean 1-7 Rocket 3.4 19:51:48 10° NNW 19:56:15 79° W 19:56:18 79° WSW
COSMOS 2428 3.9 19:51:12 10° NNW 19:56:31 38° NE 20:00:43 15° ESE
Cosmos 2181 Rocket 3.9 20:03:40 51° SSW 20:05:22 84° WNW 20:11:34 10° N
Cosmos 1626 Rocket 4.0 20:02:50 10° N 20:07:12 51° ENE 20:07:37 49° E
Cosmos 2360 Rocket 2.1 20:02:52 10° NNW 20:08:33 89° ENE 20:09:53 55° SSE
Aureole 1 Rocket 4.5 20:01:57 10° NNW 20:10:25 80° ENE 20:13:47 36° SE
Meteor 1-15 Rocket 4.1 20:09:22 59° S 20:10:29 83° E 20:16:09 10° NNE
Cosmos 1707 3.9 20:08:21 10° NNW 20:11:23 33° WNW 20:11:23 33° WNW
Cosmos 1980 Rocket 4.0 20:09:23 10° WNW 20:12:48 17° W 20:13:25 16° WSW
Cosmos 1602 Rocket 4.1 20:09:19 10° N 20:13:42 49° ENE 20:14:16 46° E
SL-8 Rocket 4.3 20:08:10 10° NNW 20:14:22 57° W 20:16:02 44° SW
Cosmos 2219 Rocket 3.0 20:12:03 10° NNW 20:17:28 46° NE 20:21:03 20° ESE
Cosmos 1892 Rocket 3.9 20:13:52 10° NNW 20:18:13 53° W 20:18:13 53° W
DELTA 2 DEB (DPAF) 4.0 20:18:02 73° ESE 20:18:21 79° ENE 20:22:50 10° NNW
Cosmos 389 Rocket 3.2 20:15:03 10° NNW 20:17:52 51° NNW 20:17:52 51° NNW
SJ 16-02 4.1 20:19:19 10° WNW 20:21:35 14° NW 20:23:51 10° N
Helios 1B rocket 3.2 20:17:42 10° N 20:21:38 43° WNW 20:22:00 42° W
CZ-4 R/B 3.8 20:16:47 10° NNE 20:21:47 84° WNW 20:22:32 65° SSW
USA 215 3.5 20:16:38 10° ENE 20:22:53 45° SE 20:23:45 43° SSE
ALOS 2 4.0 20:23:16 26° W 20:23:16 26° W 20:26:53 10° NW
Lacrosse 4 Rocket 1.8 20:19:50 10° NNW 20:23:59 57° NE 20:24:35 51° E
SL-16 R/B 3.7 20:24:17 15° ESE 20:28:44 38° ENE 20:34:21 10° N
Mayak 1.0 20:26:35 10° NNW 20:29:23 18° WNW 20:31:07 14° W
Cosmos 2322 3.7 20:24:18 10° NNW 20:30:04 84° ENE 20:31:52 46° SE
In-Cosmos 22 4.4 20:27:05 10° NNW 20:32:17 49° W 20:32:58 46° WSW
Cosmos 2237 Rocket 3.8 20:31:21 10° NNW 20:36:29 33° NE 20:41:36 10° ESE
Cosmos 1441 Rocket 4.3 20:39:15 37° WNW 20:39:22 37° WNW 20:43:06 10° N
Cosmos 1766 3.3 20:41:14 75° ENE 20:41:14 75° ENE 20:45:04 10° NNE
NOSS 2-1 (E) 3.7 20:42:30 53° ENE 20:42:30 53° ENE 20:45:55 10° NE
Cosmos 1733 4.0 20:42:27 44° E 20:42:27 44° E 20:45:49 10° NNE
Cosmos 1805 3.3 20:47:31 78° NNE 20:47:31 78° NNE 20:51:15 10° NNE
Cosmos 1833 4.4 20:47:45 48° SSE 20:48:53 57° ESE 20:54:30 10° NE
Cosmos 2333 Rocket 2.3 20:43:57 10° NNW 20:49:37 71° NE 20:52:23 31° SE
Cosmos 1437 Rocket 2.8 20:49:11 10° NNW 20:53:04 73° WNW 20:53:04 73° WNW
SL-19 R/B 4.0 20:49:25 10° NNE 20:54:40 78° WNW 20:55:51 54° SW
Cosmos 407 Rocket 4.1 20:49:38 10° NNW 20:54:49 54° ENE 20:57:37 26° SE
Resurs 1-4 Rocket 3.7 20:51:45 10° NE 20:56:03 25° E 20:58:06 20° SE
Meteor 1-22 Rocket 4.2 20:56:54 53° S 20:58:20 84° ESE 21:04:11 10° NNE
IKONOS-2 4.3 20:59:31 80° S 20:59:45 87° WSW 21:04:01 10° NNW
Cosmos 2322 Rocket 3.5 20:55:34 10° NW 20:59:55 24° WSW 20:59:55 24° WSW
USA 267 3.2 20:56:44 30° SSE 21:00:03 60° SW 21:06:31 10° WNW
Cosmos 1626 2.4 20:58:03 10° N 21:01:44 60° ENE 21:01:44 60° ENE
Meteor 2-5 Rocket 4.2 20:57:10 10° NNW 21:02:22 42° W 21:03:16 39° WSW
Nadezhda 3 Rocket 3.9 21:02:38 47° S 21:04:37 90° ESE 21:10:50 10° N
Cosmos 1674 3.8 21:02:46 10° NNW 21:05:44 34° WNW 21:05:44 34° WNW
Cosmos 1140 Rocket 4.3 21:02:11 10° NNW 21:07:18 48° NE 21:11:15 16° SE
Meteor 1-24 Rocket 3.9 21:03:08 10° NNW 21:08:15 50° W 21:09:05 46° SW
Cosmos 1953 Rocket 4.2 21:06:06 10° N 21:10:25 50° ENE 21:11:46 36° SE
COSMOS 2487 3.5 21:11:14 36° NW 21:11:14 36° NW 21:14:25 10° N
CZ-4C R/B 4.1 21:11:39 40° W 21:11:39 40° W 21:14:55 10° NNW
Meteor 1-4 Rocket 4.3 21:11:02 10° NW 21:13:23 23° WNW 21:13:23 23° WNW
SeaSat 1 3.6 21:10:29 10° NE 21:14:48 29° ESE 21:15:56 27° SE
ERS-2 4.5 21:21:50 14° WNW 21:21:50 14° WNW 21:23:03 10° NW
Cosmos 405 Rocket 3.6 21:21:10 37° WNW 21:21:16 37° WNW 21:24:51 10° N
SAR-Lupe-1 4.4 21:22:28 54° ESE 21:22:52 59° ENE 21:26:26 10° N
Cosmos 2082 Rocket 4.4 21:18:52 10° WNW 21:23:03 21° NNW 21:27:17 10° NNE
CZ-2D R/B 3.1 21:19:55 10° NNE 21:25:05 40° E 21:27:26 27° SE
Cosmos 1758 3.3 21:26:24 68° SSE 21:26:49 77° E 21:30:56 10° NNE
Cosmos 1455 Rocket 4.4 21:27:04 26° W 21:27:50 27° WNW 21:31:35 10° N
SL-16 R/B 4.2 21:25:29 10° WNW 21:27:52 13° W 21:27:52 13° W
Cosmos 1470 2.6 21:31:17 74° SSE 21:31:32 80° E 21:35:26 10° NNE
CZ-4B R/B 3.2 21:27:16 10° NNE 21:32:03 83° WNW 21:33:12 53° SSW
CZ-4C R/B 2.7 21:29:33 27° WSW 21:32:33 61° NNW 21:39:02 10° NE
Cosmos 1190 Rocket 4.0 21:27:21 10° NNW 21:32:43 89° ENE 21:35:12 33° SSE
Cosmos 1726 Rocket 4.2 21:32:01 38° SE 21:33:10 49° E 21:37:26 10° NNE
SL-14 R/B 3.6 21:29:36 10° NNW 21:33:29 50° W 21:33:29 50° W
NOSS 2-2 (D) 4.4 21:30:02 10° NW 21:35:34 84° SW 21:43:13 10° SE
Cosmos 1184 Rocket 3.2 21:36:23 56° E 21:36:23 56° E 21:39:24 10° NNE
Cosmos 2056 Rocket 4.4 21:35:18 29° SSE 21:37:20 40° ESE 21:42:23 10° NE
H-2A R/B 1.9 21:37:12 53° SSE 21:38:12 90° ENE 21:42:26 10° NNW
COSMOS 2455 2.8 21:32:44 10° NW 21:38:43 62° WSW 21:41:17 34° S
PSLV R/B 4.4 21:36:52 10° N 21:40:55 39° WNW 21:41:52 34° W
COSMOS 2428 2.8 21:35:29 10° NW 21:41:03 56° WSW 21:42:40 41° SSW
Cosmos 1758 Rocket 3.6 21:37:47 10° NNW 21:42:08 58° W 21:42:40 54° SW
Cosmos 1605 Rocket 4.0 21:36:47 10° NNW 21:43:08 83° W 21:46:21 32° S
ADEOS II 4.0 21:39:58 10° NE 21:44:01 22° E 21:48:03 10° SE
Cosmos 2227 Rocket 4.0 21:43:10 14° SE 21:46:25 22° ESE 21:50:39 10° NE
ATLAS 2AS CENTAUR R/B 2.9 21:39:01 10° NW 21:46:57 90° NE 21:54:15 10° SE
NOSS 2-1 (C) 4.2 21:45:50 30° WNW 21:47:07 42° NNW 21:51:15 10° NE
Landsat 5 4.4 21:44:45 19° SE 21:47:09 41° ENE 21:50:46 10° N
Cosmos 1825 Rocket 3.7 21:44:17 10° NNW 21:48:39 54° W 21:49:15 49° SW
NPP 4.0 21:43:43 10° NNE 21:49:05 59° ESE 21:51:33 31° SSE
NOSS 2-1 (D) 4.3 21:48:43 28° WNW 21:50:08 40° NNW 21:54:16 10° NE
Cosmos 614 Rocket 3.9 21:45:09 10° NNW 21:50:21 68° WSW 21:52:20 38° S
Cosmos 2360 Rocket 3.7 21:47:57 10° WNW 21:51:37 19° W 21:51:37 19° W
CZ-4B R/B 3.7 21:51:43 10° ESE 21:54:18 23° ENE 21:56:58 10° N
Cosmos 1271 Rocket 3.5 21:50:39 10° N 21:54:24 47° ENE 21:56:23 24° SE
NOSS 0 Rocket 3.8 21:49:10 10° NW 21:55:19 71° WSW 21:59:39 20° SSE
Cosmos 1624 Rocket 4.4 21:54:01 33° S 21:56:09 56° ESE 22:01:16 10° NNE
Cosmos 1726 3.5 21:55:23 25° SE 21:56:45 33° E 22:00:08 10° NNE
MOZ.5/SAFIR/RUBIN 5/SL-8 3.8 21:56:33 43° SSW 21:57:58 63° WSW 22:02:44 10° NNW
ARIANE 5 R/B 4.0 21:55:26 10° NNE 22:00:04 30° E 22:03:58 13° SSE
Cosmos 2219 Rocket 2.6 21:56:11 10° NW 22:01:26 42° WSW 22:02:42 36° SW
Lacrosse 4 Rocket 3.1 21:59:04 10° WNW 22:00:51 19° W 22:00:51 19° W
Cosmos 2297 Rocket 3.6 21:59:32 17° SSE 22:02:52 29° ESE 22:07:42 10° NE
Cosmos 1339 Rocket 4.5 22:00:12 31° S 22:03:28 89° W 22:09:48 10° N
Cosmos 1606 Rocket 3.5 22:03:34 46° SSW 22:04:47 72° WNW 22:09:14 10° N
IRS-1D 4.1 22:00:08 10° NNE 22:05:09 52° E 22:08:06 24° SSE
Genesis I 3.0 22:02:14 10° NW 22:06:13 74° SW 22:08:10 28° SSE
USA 215 3.2 21:59:43 10° ENE 22:06:18 87° NNW 22:11:04 20° WSW
Cosmos 1934 Rocket 4.5 22:00:59 10° NNW 22:06:38 41° W 22:08:46 31° SW
Timation 2 Rocket 4.2 22:04:55 30° SW 22:08:31 75° NW 22:15:06 10° NNE
Cosmos 1023 Rocket 4.5 22:04:10 10° NNW 22:09:24 64° WSW 22:12:03 29° S
Cosmos 1953 2.4 22:10:29 47° SW 22:11:20 60° WNW 22:15:17 10° N
SL-16 R/B 2.7 22:09:22 30° SSW 22:12:13 53° W 22:18:16 10° NNW
Cosmos 1703 3.2 22:09:45 10° N 22:13:41 81° E 22:15:22 33° SSE
Cosmos 2228 3.0 22:12:38 43° SW 22:13:54 69° WNW 22:18:12 10° N
CZ-4C R/B 2.9 22:14:20 46° S 22:15:20 84° WSW 22:18:53 10° NNW
Cosmos 1371 Rocket 4.0 22:14:07 34° SSW 22:16:28 87° ESE 22:21:46 10° NNE
CBERS-1 4.1 22:11:19 10° NNE 22:16:28 73° ESE 22:19:12 28° S
Meteor 1-11 4.2 22:14:03 10° NNW 22:19:44 85° ENE 22:24:29 15° SSE
Cosmos 2237 Rocket 2.1 22:15:20 10° NW 22:20:58 66° WSW 22:26:02 13° SSE
ERBS 2.6 22:21:11 45° SSE 22:21:29 47° SE 22:24:45 10° ENE
Cosmos 1980 3.7 22:16:17 10° NW 22:21:53 61° WSW 22:26:20 16° SSE
Cosmos 2058 Rocket 3.0 22:21:16 35° SSW 22:23:09 84° WNW 22:27:42 10° N
UNK 4.4 22:24:59 32° SW 22:26:03 36° W 22:30:24 10° NNW
SL-16 R/B 2.5 22:21:45 10° NNW 22:27:25 68° NE 22:33:04 10° SE
Cosmos 2061 Rocket 4.3 22:22:11 10° N 22:28:36 70° ENE 22:35:00 10° SSE
IRS-P3 4.2 22:23:17 10° NNE 22:28:40 75° ESE 22:32:02 23° S
BREEZE-M DEB (TANK) 3.4 22:31:13 19° SE 22:31:13 19° SE 22:33:15 10° E
Cosmos 2333 Rocket 3.2 22:28:52 10° NW 22:33:25 25° WSW 22:34:20 24° WSW
Cosmos 1452 Rocket 4.3 22:31:18 18° S 22:34:57 46° ESE 22:39:58 10° NE
Resurs 1-4 Rocket 2.2 22:31:07 10° N 22:36:19 63° WNW 22:39:11 27° SW
Cosmos 407 Rocket 4.4 22:32:05 10° NW 22:36:33 29° W 22:37:45 26° SW
Cosmos 1626 4.2 22:34:31 10° NW 22:36:17 14° W 22:36:17 14° W
SL-08 R/B 3.4 22:34:38 23° S 22:37:40 61° WSW 22:42:36 10° NNW
Cosmos 1727 Rocket 4.1 22:37:45 24° SSW 22:41:47 69° WNW 22:48:10 10° N
Cosmos 1954 Rocket 4.3 22:36:58 10° NW 22:42:04 48° WSW 22:45:30 20° S
CZ-2C R/B 4.5 22:38:48 10° NNE 22:42:23 30° E 22:45:59 10° SSE
USA 267 4.3 22:44:02 22° SW 22:44:02 22° SW 22:48:52 10° WNW
Cosmos 1076 Rocket 3.8 22:39:57 10° N 22:44:12 66° ENE 22:48:25 10° SSE
Cosmos 2219 3.2 22:41:29 24° SSW 22:45:04 83° ESE 22:50:53 10° NNE
Cosmos 2173 Rocket 4.0 22:41:39 10° NNW 22:47:51 72° W 22:53:48 12° S
Alouette 2 Rocket 4.1 22:46:48 28° WSW 22:48:26 43° WNW 22:53:03 10° N
Cosmos 1140 Rocket 4.2 22:44:16 10° NW 22:48:57 34° WSW 22:51:12 24° SW
deb Chang Zheng 4 3.5 22:45:29 10° NNE 22:49:48 79° WNW 22:52:19 25° SSW
NOSS 3-4 (A) 3.8 22:45:34 10° NW 22:52:22 65° SW 22:59:50 10° SSE
NOSS 3-4 (C) 3.8 22:45:40 10° NW 22:52:28 65° SW 22:59:56 10° SSE
SeaSat 1 2.7 22:47:44 10° NNE 22:52:37 60° NW 22:55:43 22° SW
Cosmos 1242 Rocket 2.3 22:52:09 10° NNW 22:55:40 89° WSW 22:58:39 13° SSE
Cosmos 1908 3.2 23:01:45 24° SSW 23:03:53 64° WNW 23:07:43 10° N
NOSS 3-3 (C) 4.1 22:59:57 20° SW 23:04:28 80° NW 23:11:29 10° NE
NOSS 3-3 (A) 4.1 22:59:57 20° SW 23:04:30 80° NW 23:11:30 10° NE
CZ-2D R/B 2.8 23:00:03 10° N 23:05:11 42° WNW 23:08:45 18° SW
Cosmos 2151 4.3 23:01:13 10° N 23:05:14 41° ENE 23:09:13 10° SE
Meteor 2-10 4.3 23:05:27 18° SSW 23:09:45 65° WNW 23:15:29 10° N
Cosmos 1000 Rocket 4.5 23:04:35 15° SSW 23:09:56 76° WNW 23:16:10 10° N
Cosmos 2100 Rocket 4.4 23:08:36 10° NNW 23:14:36 46° W 23:20:15 12° SSW
H-2A R/B 4.0 23:14:19 13° W 23:14:48 13° W 23:16:46 10° WNW
Cosmos 2016 Rocket 4.0 23:09:57 10° NNW 23:16:07 65° W 23:22:08 10° S
Cosmos 1850 Rocket 4.1 23:11:48 10° NNW 23:16:55 54° WSW 23:21:58 10° S
Cosmos 1802 Rocket 4.1 23:11:03 10° NNW 23:17:01 55° W 23:22:59 10° SSW
Cosmos 2056 Rocket 4.3 23:15:38 17° WSW 23:19:30 43° NW 23:24:41 10° NNE
CZ-4C R/B 3.9 23:16:51 10° WNW 23:22:17 35° N 23:28:37 10° ENE
COSMOS 2455 4.4 23:20:40 10° WNW 23:23:29 14° W 23:24:20 13° WSW
ADEOS II 2.1 23:19:00 10° NNE 23:24:16 71° WNW 23:29:04 12° SSW
Cosmos 1741 Rocket 4.3 23:20:42 10° NW 23:25:49 49° WSW 23:30:55 10° S
CZ-4B R/B 2.2 23:24:54 18° SW 23:26:36 30° W 23:29:34 10° NNW
Cosmos 2233 Rocket 4.0 23:21:36 10° N 23:27:49 86° E 23:33:58 10° S
Cosmos 1461 3.7 23:24:43 12° SSW 23:28:11 43° SE 23:31:59 10° NE
Spot 4 Rocket 4.1 23:23:48 10° NNE 23:28:58 71° WNW 23:33:54 11° SSW
Cosmos 2227 Rocket 2.2 23:25:01 15° SW 23:29:51 81° WNW 23:35:34 10° NNE
Cosmos 1271 Rocket 4.3 23:27:22 10° NW 23:30:04 19° W 23:31:30 15° WSW
Cosmos 1726 3.5 23:29:55 16° WSW 23:32:03 25° WNW 23:35:13 10° N
ADEOS 4.5 23:28:05 10° NNE 23:33:10 49° E 23:38:14 10° S
CZ-2D R/B 3.6 23:30:32 10° N 23:34:56 69° WNW 23:39:12 10° SSW
Cosmos 1300 2.6 23:31:34 10° SSW 23:35:23 83° W 23:39:13 10° N
Cosmos 1455 4.5 23:32:31 10° SE 23:35:34 24° E 23:38:38 10° NE
Cosmos 2123 Rocket 4.0 23:30:39 10° SSW 23:36:51 79° WNW 23:43:10 10° N
Cosmos 1812 Rocket 3.8 23:33:05 13° SSW 23:36:52 51° WNW 23:41:09 10° N
ATLAS 2AS CENTAUR R/B 3.6 23:30:44 10° WNW 23:37:08 30° WSW 23:43:07 10° S
Cosmos 2285 Rocket 4.5 23:31:38 10° NNW 23:38:00 69° ENE 23:44:24 10° SE
ARIANE 5 R/B 2.9 23:34:19 10° N 23:39:25 52° WNW 23:44:18 11° SW
Cosmos 1689 Rocket 3.1 23:40:08 12° SSW 23:42:27 28° W 23:45:09 10° NW
RESURS DK-1 3.5 23:41:43 10° NNW 23:45:47 48° NE 23:49:48 10° SE
Cosmos 2297 Rocket 2.4 23:41:21 12° SW 23:46:35 63° NW 23:52:14 10° NNE
Meteor 1-28 Rocket 3.4 23:44:10 10° S 23:47:46 48° W 23:51:23 10° NNW
USA 215 3.7 23:42:43 10° ENE 23:49:11 65° N 23:55:40 10° W
Cosmos 1825 3.9 23:47:24 10° N 23:50:58 37° ENE 23:54:31 10° SE
Cosmos 1725 Rocket 4.3 23:45:38 10° NNW 23:51:33 47° W 23:57:25 10° SSW
Meteor 2-1 Rocket 4.4 23:47:53 10° SSW 23:53:49 86° W 23:59:42 10° NNE
SL-16 R/B 4.4 23:56:10 10° W 23:57:18 10° W 23:58:26 10° WNW
